[[{"header":{"parameterUnit":"m.s-1","parameterCategory":1,"la1":30.2991,"la2":30.254,"lo1":-89.0895,"lo2":-89.0444,"dy":0.0017,"dx":0.0017,"nx":28,"ny":28,"refTime":"2025-04-28T03:00:00:Z","depth":0,"parameterNumber":2,"parameterNumberName":"U-component_of_WINDS"},"data":[0,0,0,0,0,0,0,0,0,0,0,0,0,0,0,0,0,0,0,0,0,0,0,0,0,0,0,0,0,0,0,0,0,0,0,0,0,0,0,0,0,0,0,0,0,0,0,0,0,0,0,0,0,0,0,0,0,0,1.1529,1.153,0,1.1608,1.1609,1.161,1.1612,1.1611,1.161,1.1609,1.1691,1.1694,1.1697,0,0,0,0,0,0,0,0,0,0,0,0,0,1.1379,1.1382,1.1529,1.153,1.1531,1.1608,1.1609,1.161,1.1612,1.1611,1.1609,1.1608,1.169,1.1693,1.1697,0,0,0,0,0,0,0,0,0,0,0,0,0,1.145,1.1383,1.1529,1.1541,1.1543,1.1608,1.1609,1.161,1.1612,1.1611,1.1609,1.1608,1.1689,1.1693,1.1698,1.1756,0,0,1.1712,1.1714,0,0,0,0,0,0,0,0,1.1446,1.1455,1.1538,1.154,1.1543,1.1598,1.1586,1.1659,1.1612,1.1586,1.1609,1.1607,1.1661,1.1668,1.1686,1.176,1.1763,1.1712,1.1715,1.1717,1.1718,0,0,0,0,0,0,0,1.1441,1.1452,1.156,1.1539,1.1542,1.1542,1.1551,1.16,1.1631,1.1588,1.1588,1.1598,1.1662,1.1682,1.1688,1.1764,1.1712,1.1716,1.1719,1.1721,1.1886,1.1888,0,0,0,0,0,0,1.1433,1.1448,1.1558,1.1563,1.1489,1.1546,1.1556,1.1582,1.163,1.1636,1.1599,1.1597,1.1675,1.1683,1.1691,1.176,1.1717,1.1721,1.1724,1.1885,1.1886,1.1888,0,0,0,0,0,0,1.143,1.1443,1.1555,1.1505,1.1519,1.155,1.158,1.1584,1.1604,1.1638,1.1644,1.1613,1.1674,1.1685,1.1739,1.1763,1.1724,1.1728,1.1883,1.1885,1.1887,1.19,0,0,0,0,0,0,1.1426,1.1442,1.1465,1.1506,1.1522,1.1601,1.1582,1.1587,1.1612,1.1611,1.1653,1.1659,1.1673,1.1732,1.1743,1.1769,1.1731,1.1881,1.1884,1.1887,1.1897,1.1902,1.1907,0,0,0,0,0,1.142,1.1466,1.1466,1.1479,1.1551,1.1603,1.1612,1.1627,1.1614,1.1636,1.1658,1.1658,1.1759,1.1737,1.1751,1.1777,1.1879,1.1883,1.1886,1.1895,1.1901,1.1906,0,0,0,0,0,0,1.1428,1.1472,1.1472,1.1532,1.1564,1.1603,1.1632,1.1634,1.167,1.1668,1.1685,1.1695,1.1748,1.1769,1.1744,1.1835,1.1817,1.1824,1.1819,1.1826,1.183,1.1824,1.1735,0,0,0,0,0,1.1437,1.1475,1.1511,1.1561,1.1576,1.1601,1.1625,1.1633,1.1667,1.168,1.1706,1.1739,1.1777,1.1803,1.1841,1.19,1.1909,1.1925,1.193,1.1933,1.1938,1.1969,1.1976,1.19,1.19,1.19,0,0,1.1455,1.1483,1.1507,1.1563,1.1588,1.1627,1.1613,1.1655,1.1683,1.1687,1.1739,1.1759,1.1796,1.1853,1.1879,1.1871,1.1961,1.1938,1.1941,1.1944,1.1973,1.198,1.1987,1.1902,1.1902,1.1902,0,0,1.1508,1.1534,1.1577,1.1602,1.164,1.1656,1.1666,1.1705,1.1718,1.177,1.1773,1.1807,1.1874,1.19,1.1922,1.1981,1.1981,1.1993,1.2017,1.2047,1.2053,1.2058,1.2077,1.2084,1.1998,1.1998,1.1998,0,1.1526,1.1584,1.1599,1.164,1.1664,1.1667,1.171,1.1734,1.1783,1.1799,1.1789,1.1872,1.1897,1.1959,1.1973,1.1991,1.2002,1.1988,1.2051,1.2056,1.2061,1.208,1.2087,1.1999,1.1999,1.1999,1.1999,0,1.1603,1.1643,1.1674,1.1719,1.1746,1.1788,1.1808,1.1834,1.184,1.1857,1.1909,1.1939,1.1982,1.1998,1.2005,1.2059,1.2053,1.2047,1.2029,1.2069,1.2087,1.2094,1.2001,1.2001,1.2,1.2,0,0,1.1664,1.1715,1.1726,1.1745,1.1786,1.1818,1.1859,1.19,1.1921,1.1954,1.1988,1.2043,1.2037,1.2062,1.2071,1.2098,1.214,1.2088,1.2089,1.2095,1.22,1.2203,1.2211,1.214,1.2142,1.2143,1.2196,0,1.172,1.1793,1.1806,1.187,1.1906,1.1909,1.1945,1.1973,1.1989,1.2022,1.204,1.2078,1.2069,1.2083,1.2109,1.2129,1.2161,1.2126,1.2171,1.2173,1.2161,1.2221,1.2225,1.2273,1.2203,1.2204,1.2205,0,1.1795,1.1828,1.1895,1.1929,1.1944,1.1976,1.2013,1.2045,1.2077,1.2087,1.2113,1.2119,1.2161,1.2142,1.2199,1.2175,1.2194,1.2207,1.2209,1.2213,1.2191,1.2225,1.229,1.2296,1.2217,1.2216,1.2215,0,1.183,1.1892,1.1939,1.1956,1.1997,1.2019,1.2037,1.2068,1.209,1.2123,1.2138,1.2175,1.2195,1.2224,1.2239,1.2224,1.2295,1.2277,1.2303,1.2302,1.2317,1.2316,1.2384,1.2332,1.2332,1.2332,1.2331,0,1.1891,1.1931,1.1955,1.1984,1.2028,1.2043,1.2086,1.2104,1.2131,1.2163,1.2168,1.2198,1.2217,1.2249,1.2261,1.2306,1.2315,1.2324,1.2326,1.2322,1.2321,1.2335,1.2331,1.2334,1.2333,1.2333,1.2332,0,1.1937,1.1955,1.2006,1.204,1.205,1.2081,1.211,1.2137,1.2153,1.2193,1.2203,1.2228,1.2265,1.2284,1.2331,1.2339,1.2389,1.239,1.2378,1.2378,1.2402,1.2399,1.2481,1.2492,1.2433,1.2434,1.2434,0,1.1974,1.2005,1.2041,1.2062,1.2081,1.2115,1.2138,1.2153,1.2176,1.2213,1.2236,1.2274,1.2305,1.2365,1.2387,1.2423,1.2424,1.245,1.243,1.2424,1.2422,1.242,1.2422,1.2454,1.2454,1.2455,1.2455,0,1.2037,1.2043,1.2076,1.2111,1.2137,1.2166,1.2194,1.2211,1.223,1.2256,1.2294,1.2318,1.2365,1.2402,1.2439,1.2457,1.2459,1.2461,1.2469,1.2465,1.2455,1.2459,1.2386,1.2459,1.2459,1.2459,1.2458,1.2458,1.2078,1.2105,1.2134,1.2169,1.2191,1.2217,1.2243,1.2261,1.2293,1.2332,1.2339,1.2379,1.2408,1.2457,1.2477,1.2508,1.2502,1.2513,1.2516,1.2518,1.2518,1.2451,1.2515,1.2515,1.2515,1.2515,1.2515,0,1.214,1.2158,1.219,1.2228,1.2255,1.2254,1.2284,1.2307,1.2342,1.2368,1.2398,1.2441,1.2476,1.25,1.2535,1.2555,1.2557,1.2564,1.2562,1.2566,1.2523,1.2512,1.2562,1.2562,1.2562,1.2562,1.2562,1.2562,1.2175,1.2218,1.2228,1.2282,1.23,1.2339,1.2356,1.2379,1.24,1.2447,1.2476,1.2491,1.2516,1.2553,1.2584,1.259,1.2603,1.261,1.2615,1.2574,1.2569,1.2565,1.2554,1.2612,1.2613,1.2656,1.2656,1.2656]},{"header":{"parameterUnit":"m.s-1","parameterCategory":1,"la1":30.2991,"la2":30.254,"lo1":-89.0895,"lo2":-89.0444,"dy":0.0017,"dx":0.0017,"nx":28,"ny":28,"refTime":"2025-04-28T03:00:00:Z","depth":0,"parameterNumber":3,"parameterNumberName":"V-component_of_WINDS"},"data":[0,0,0,0,0,0,0,0,0,0,0,0,0,0,0,0,0,0,0,0,0,0,0,0,0,0,0,0,0,0,0,0,0,0,0,0,0,0,0,0,0,0,0,0,0,0,0,0,0,0,0,0,0,0,0,0,0,0,3.6572,3.6573,0,3.6621,3.6621,3.6622,3.6573,3.6571,3.6569,3.6567,3.6612,3.6615,3.6618,0,0,0,0,0,0,0,0,0,0,0,0,0,3.6432,3.6435,3.6572,3.6573,3.6574,3.6621,3.6621,3.6622,3.6573,3.6571,3.6569,3.6566,3.6611,3.6614,3.6618,0,0,0,0,0,0,0,0,0,0,0,0,0,3.6488,3.6436,3.6572,3.6555,3.6554,3.662,3.6621,3.6622,3.6574,3.6571,3.6568,3.6565,3.661,3.6614,3.6618,3.6703,0,0,3.6632,3.6634,0,0,0,0,0,0,0,0,3.6485,3.6493,3.6557,3.6556,3.6555,3.6588,3.6588,3.6649,3.6574,3.6566,3.6567,3.6564,3.6606,3.661,3.6626,3.6705,3.6707,3.6632,3.6635,3.6637,3.6638,0,0,0,0,0,0,0,3.6481,3.6491,3.6591,3.6558,3.6557,3.6543,3.6548,3.6599,3.6601,3.6567,3.6563,3.657,3.6605,3.6621,3.6626,3.6707,3.6632,3.6636,3.6639,3.6641,3.6855,3.6858,0,0,0,0,0,0,3.648,3.6488,3.659,3.6593,3.6513,3.6548,3.6553,3.658,3.6601,3.6601,3.6572,3.6567,3.6615,3.6621,3.6628,3.6726,3.6637,3.6641,3.6644,3.6852,3.6856,3.6859,0,0,0,0,0,0,3.6477,3.6489,3.6588,3.6539,3.6551,3.6553,3.6584,3.6583,3.6599,3.6605,3.6604,3.6589,3.6613,3.6621,3.6684,3.6727,3.6643,3.6647,3.6849,3.6853,3.6858,3.6924,0,0,0,0,0,0,3.6473,3.6489,3.6522,3.6541,3.6554,3.6645,3.6587,3.6586,3.6608,3.6602,3.6621,3.6621,3.6612,3.6678,3.6689,3.6731,3.6651,3.6845,3.6851,3.6856,3.6918,3.693,3.6941,0,0,0,0,0,3.6468,3.6538,3.6524,3.6537,3.6596,3.6648,3.6655,3.6645,3.6611,3.6644,3.6647,3.662,3.6721,3.6685,3.6696,3.6741,3.6842,3.6849,3.6856,3.6913,3.6928,3.6941,0,0,0,0,0,0,3.6523,3.6541,3.6525,3.6604,3.6625,3.664,3.6681,3.6661,3.6691,3.6684,3.6668,3.6673,3.6739,3.6746,3.6706,3.6822,3.6776,3.6785,3.6815,3.6829,3.6841,3.6837,3.6654,0,0,0,0,0,3.6545,3.6588,3.66,3.6668,3.6679,3.6678,3.6701,3.6691,3.6711,3.672,3.6727,3.6747,3.6783,3.6807,3.684,3.6919,3.6921,3.6955,3.6967,3.6976,3.6984,3.7024,3.7039,3.6882,3.6882,3.6881,0,0,3.659,3.6604,3.6632,3.6679,3.6695,3.6737,3.6686,3.6734,3.6764,3.6726,3.6786,3.6792,3.6813,3.6884,3.6916,3.6892,3.7028,3.6985,3.6992,3.6995,3.7033,3.7048,3.7061,3.6886,3.6885,3.6885,0,0,3.6692,3.6709,3.6766,3.6783,3.6807,3.6806,3.6819,3.6837,3.684,3.69,3.6872,3.6907,3.697,3.6985,3.7001,3.7109,3.7084,3.712,3.7179,3.7218,3.7231,3.7241,3.7278,3.7291,3.7128,3.7128,3.7128,0,3.6744,3.6809,3.6798,3.6847,3.6868,3.6837,3.6893,3.6909,3.6943,3.6956,3.693,3.7007,3.7019,3.7092,3.7118,3.7133,3.7146,3.7117,3.723,3.7241,3.7251,3.7285,3.7299,3.7132,3.7132,3.7131,3.7131,0,3.687,3.6915,3.6958,3.6992,3.7018,3.7071,3.7066,3.7092,3.708,3.7081,3.7141,3.7154,3.7188,3.7205,3.7193,3.7276,3.7261,3.7233,3.7185,3.727,3.7302,3.7315,3.7138,3.7137,3.7135,3.7134,0,0,3.7008,3.7035,3.7051,3.7065,3.709,3.7123,3.7174,3.7209,3.7231,3.7255,3.7295,3.7348,3.7322,3.734,3.7329,3.7364,3.7446,3.7332,3.7332,3.7351,3.7535,3.7555,3.7571,3.7431,3.7433,3.7435,3.7533,0,3.711,3.7199,3.719,3.7274,3.7314,3.7284,3.7328,3.7346,3.7348,3.7381,3.7382,3.7419,3.7383,3.7394,3.7427,3.7429,3.7482,3.7422,3.7465,3.7467,3.746,3.7588,3.7609,3.7701,3.7546,3.7548,3.7549,0,3.7241,3.727,3.7358,3.7374,3.7391,3.7431,3.7461,3.7493,3.7513,3.7511,3.7532,3.7514,3.7562,3.7515,3.758,3.7539,3.7556,3.756,3.7563,3.7565,3.7512,3.7592,3.773,3.7744,3.7569,3.7568,3.7566,0,3.733,3.7392,3.7452,3.7465,3.7487,3.7515,3.7524,3.7541,3.7562,3.7588,3.7601,3.7632,3.7649,3.7673,3.7663,3.763,3.773,3.7682,3.7728,3.7728,3.7749,3.7747,3.7891,3.7763,3.7763,3.7763,3.7762,0,3.7444,3.7498,3.7492,3.7529,3.7589,3.7577,3.7635,3.7641,3.7656,3.7692,3.7668,3.7702,3.7689,3.7721,3.7714,3.7768,3.7776,3.7775,3.7772,3.7776,3.7776,3.7786,3.7778,3.7766,3.7765,3.7765,3.7764,0,3.7554,3.7552,3.7615,3.763,3.7635,3.7678,3.769,3.7723,3.7723,3.7769,3.7779,3.7778,3.7815,3.7809,3.7849,3.7844,3.7911,3.7901,3.7905,3.7902,3.7947,3.7943,3.8101,3.812,3.7982,3.7983,3.7984,0,3.7625,3.7667,3.7686,3.7709,3.7721,3.7759,3.778,3.777,3.7793,3.7817,3.7847,3.7882,3.7909,3.7969,3.7971,3.8001,3.7991,3.8044,3.7995,3.7997,3.7989,3.7986,3.7989,3.8053,3.8055,3.8056,3.8057,0,3.7752,3.7749,3.7782,3.7815,3.7841,3.7866,3.7888,3.7907,3.7898,3.7925,3.7963,3.7984,3.8026,3.806,3.8088,3.8096,3.8075,3.8073,3.8085,3.8088,3.8088,3.8087,3.7929,3.8069,3.8068,3.8067,3.8066,3.8066,3.7844,3.7879,3.7898,3.7934,3.795,3.7971,3.8003,3.8007,3.8039,3.8072,3.8064,3.8106,3.8122,3.8158,3.8169,3.8201,3.8181,3.8199,3.8203,3.8207,3.8212,3.8085,3.8206,3.8206,3.8205,3.8205,3.8205,0,3.7968,3.7979,3.8013,3.8044,3.8073,3.8052,3.8075,3.8099,3.8137,3.8155,3.8183,3.8225,3.8258,3.8263,3.8293,3.8317,3.8308,3.8326,3.8323,3.8324,3.8229,3.8214,3.8332,3.8332,3.8332,3.8332,3.8332,3.8332,3.8036,3.8093,3.8092,3.8155,3.8165,3.8207,3.8222,3.824,3.8254,3.8303,3.8331,3.8334,3.8346,3.8377,3.8405,3.8405,3.8417,3.8438,3.8434,3.8344,3.8331,3.8319,3.8306,3.8441,3.8441,3.8527,3.8528,3.8528]}]]